Cloud_Cover
48 100 99 100 100 100 100 100 100 100 100 66 98 76 5 5 6 4 7 38 36 74 35 85 6 98 98 8 17 5 0 10 68 5 50 98 94 60 32 100 91 64 5
100 99 76 100 100 100 100 100 100 100 100 100 100 96 34 8 55 0 4 5 5 100 93 36 18 100 100 82 25 6 5 4 5 60 56 86 100 100 85 100 27 84 5
100 100 100 100 100 100 100 100 100 100 100 100 100 85 8 10 5 1 5 5 57 100 89 89 98 100 100 100 19 19 7 5 5 26 98 100 96 79 100 52 100 69 96
100 100 100 100 100 100 100 100 100 100 100 100 100 97 89 88 7 5 9 5 32 100 100 74 100 100 100 100 100 100 100 99 5 18 29 73 92 100 100 98 100 100 100
100 100 100 100 100 100 100 100 94 100 100 100 100 84 88 40 4 5 9 62 98 78 100 100 100 100 95 89 84 48 100 100 90 55 50 45 98 100 100 100 100 100 100
100 100 100 100 100 100 100 100 100 100 100 100 100 42 15 13 48 5 24 99 100 100 100 100 100 62 32 63 98 100 99 33 100 55 17 5 68 98 94 39 100 100 100
100 100 100 100 100 100 100 100 100 100 100 97 77 38 80 83 90 87 50 82 90 100 100 100 100 95 68 76 100 90 100 32 5 31 6 89 93 82 100 100 100 100 100
100 100 100 100 100 100 100 100 100 100 100 36 41 83 100 84 75 100 100 90 100 100 100 100 100 93 95 100 100 100 82 100 100 100 5 75 97 100 100 100 100 100 100
100 100 100 100 100 100 100 100 100 100 100 42 64 10 100 100 78 9 49 100 100 100 100 100 100 100 100 100 100 78 100 100 100 100 79 98 100 100 100 100 100 100 100
100 100 100 100 100 100 100 100 100 100 100 98 35 8 5 95 83 100 42 100 100 100 100 100 100 100 100 100 99 100 98 100 100 85 100 100 100 100 100 100 100 100 100
100 100 100 100 100 100 100 100 100 100 100 100 17 17 33 61 5 100 84 100 100 100 100 100 100 100 100 100 100 84 100 100 6 46 100 100 100 100 100 100 92 100 100
100 100 100 100 100 100 100 100 100 100 98 99 24 77 83 63 10 66 82 100 100 100 100 100 100 100 100 100 71 46 83 38 67 79 70 100 100 100 82 100 100 100 100
51 100 100 100 100 100 100 100 100 100 100 100 93 57 100 60 91 21 58 100 100 100 100 99 100 100 100 95 100 60 68 100 100 100 70 100 100 76 6 96 100 100 100
55 17 100 100 100 99 100 100 100 100 100 100 100 100 100 100 98 79 61 100 100 100 100 100 84 100 84 100 100 16 92 100 100 96 72 64 45 7 5 98 28 100 100
100 99 78 98 100 100 100 100 100 99 100 100 100 100 100 100 100 100 99 98 100 100 100 100 100 96 98 100 100 14 99 100 100 58 50 8 58 5 24 89 100 100 100
79 100 100 100 100 100 100 100 100 100 100 100 100 100 100 100 100 100 100 100 100 100 100 100 100 100 89 98 100 99 97 100 100 61 60 20 5 16 78 33 100 100 100
7 100 100 100 100 100 100 100 100 100 100 100 100 100 100 100 100 100 100 100 100 100 100 100 100 96 98 100 100 97 71 100 100 92 88 99 40 64 85 100 77 100 100
8 52 100 91 100 100 100 100 100 100 100 100 100 100 100 100 100 100 100 100 100 100 100 100 100 100 91 100 100 100 98 100 100 100 37 98 81 58 54 100 100 100 100
100 7 84 100 86 100 100 100 100 100 100 100 100 100 100 100 100 100 100 100 100 100 100 100 100 100 100 100 100 100 100 100 100 100 88 86 96 100 54 100 100 100 100
27 99 46 87 100 98 100 100 100 100 100 100 100 100 100 100 100 100 100 100 100 100 100 100 100 100 100 100 100 98 100 99 100 100 100 100 92 100 100 40 100 100 100
0 64 100 78 84 100 100 100 100 100 100 100 100 100 100 100 100 100 100 100 100 100 100 100 100 100 100 100 100 100 100 100 100 100 100 100 100 98 100 100 35 59 100
0 0 9 100 80 100 100 100 100 100 100 100 100 100 100 100 100 100 100 100 100 100 100 100 100 100 100 100 100 100 100 100 100 100 100 100 100 100 81 96 58 55 100
0 0 0 8 100 100 100 100 100 100 100 100 100 100 100 100 100 100 100 100 100 100 100 100 100 100 100 100 100 100 100 100 100 100 100 100 100 100 99 100 65 83 100
0 0 0 0 33 100 100 100 100 100 100 100 100 100 100 100 100 100 100 100 100 100 100 100 100 100 100 100 100 100 100 100 100 100 100 100 100 100 100 87 56 84 98
0 0 0 0 0 95 100 100 100 100 100 100 98 100 100 100 100 100 100 100 100 100 100 100 100 100 100 100 100 100 100 100 100 100 100 100 100 100 100 100 99 99 100
0 0 0 0 0 15 100 100 96 100 100 100 100 100 100 100 100 100 100 100 100 100 100 100 100 100 100 100 100 100 100 100 100 100 100 100 100 100 100 100 100 100 100